マセニー彗星

C/2016 T2 ( Matheny )

English version
Home page
Updated on December 31, 2016

---------------------------------------------------------------------

・ プロフィール

発見日 2016年10月10日
発見光度 18.6等
発見者 Rose G. Matheny (Mount Lemmon Survey)

・ 写真集

・ 軌道要素

Epoch 2017 Jan. 7.0 TT = JDT 2457760.5
T 2016 Dec. 29.16692 TT                                 MPCW
q   1.9072751            (2000.0)            P               Q
z  +0.0099170      Peri.   92.32354     +0.01605524     -0.93555601
 +/-0.0003914      Node   339.08899     -0.25010979     +0.33788328
e   0.9810856      Incl.   81.30259     +0.96808436     +0.10280973
From 111 observations 2016 Oct. 10-Nov. 7, mean residual 0".6.

・ 光度変化

        m1 = 13.0 + 5 logΔ + 10.0 log r

---------------------------------------------------------------------

軌道要素はM.P.E.C. 2016-V116に掲載されたものです。
光度グラフはComet for Windowsで作成したものです。

---------------------------------------------------------------------

Copyright(C) Seiichi Yoshida (comet@aerith.net). All rights reserved.